User: anonymous   Login
Location: Unspecified
(0.0000°N, 0.0000°E)
Time: 19:45:37
(UTC+00:00)
Language:

Kosmos-2239 - Orbit

View from above orbital plane
View from above orbital plane
View from above satellite
View from above satellite

Ground track
Ground track

The orbit data is extracted from the following two-line orbital elements,

1 22590U 93020A   17268.82008925  .00000042  00000-0  27348-4 0  9994
2 22590  82.9346 346.7632 0023042 183.5187 315.9939 13.75382400229024
Epoch (UTC): 25 September 2017 19:40:55
Eccentricity: 0.0023042
inclination: 82.9346°
perigee height: 963 km
apogee height: 997 km
right ascension of ascending node: 346.7632°
argument of perigee: 183.5187°
revolutions per day: 13.75382400
mean anomaly at epoch: 315.9939°
orbit number at epoch: 22902

The dashed part of the orbit path shows where the satellite is in the earth's shadow,  

DLR